• In Romania
  • List of Countries
  • For 7 days
  • Water Temperature
  • Satellite Maps
  • Weather Map
  • Weather Widgets
  • user-avatar
    Login

    Hourly Weather Escaldes-Engordany

    Today, 25 April, Tuesday

    Time Temperature Precipitation Wind Pressure Humidity
    00:00 +5°C° 0 mm 1 mps 635 mmHg 69%
    01:00 +5°C° 0 mm 1 mps 635 mmHg 70%
    02:00 +4°C° 0 mm 1 mps 634 mmHg 71%
    03:00 +4°C° 0 mm 1 mps 634 mmHg 72%
    04:00 +5°C° 0 mm 1 mps 634 mmHg 70%
    05:00 +5°C° 0 mm 1 mps 634 mmHg 68%
    06:00 +6°C° 0 mm 2 mps 635 mmHg 63%
    07:00 +8°C° 0 mm 2 mps 635 mmHg 59%
    08:00 +10°C° 0 mm 2 mps 636 mmHg 55%
    09:00 +12°C° 0 mm 3 mps 636 mmHg 51%
    10:00 +13°C° 0.1 mm 3 mps 636 mmHg 51%
    11:00 +14°C° 0.1 mm 3 mps 636 mmHg 51%
    12:00 +15°C° 0.1 mm 4 mps 636 mmHg 50%
    13:00 +14°C° 0.5 mm 4 mps 635 mmHg 56%
    14:00 +13°C° 0.5 mm 4 mps 634 mmHg 61%
    15:00 +13°C° 0.5 mm 4 mps 633 mmHg 67%
    16:00 +11°C° 1.4 mm 3 mps 633 mmHg 75%
    17:00 +10°C° 1.4 mm 3 mps 632 mmHg 82%
    18:00 +9°C° 1.4 mm 2 mps 631 mmHg 90%
    19:00 +8°C° 1.6 mm 2 mps 631 mmHg 93%
    20:00 +7°C° 1.6 mm 2 mps 631 mmHg 95%
    21:00 +7°C° 1.6 mm 1 mps 632 mmHg 98%
    22:00 +7°C° 0.8 mm 1 mps 632 mmHg 98%
    23:00 +6°C° 0.8 mm 1 mps 632 mmHg 97%

    Tomorrow, 26 April, Wednesday

    Time Temperature Precipitation Wind Pressure Humidity
    00:00 +6°C° 0.8 mm 1 mps 632 mmHg 97%
    01:00 +6°C° 0.3 mm 1 mps 631 mmHg 97%
    02:00 +6°C° 0.3 mm 1 mps 631 mmHg 97%
    03:00 +6°C° 0.3 mm 1 mps 631 mmHg 97%
    04:00 +6°C° 0.2 mm 1 mps 631 mmHg 97%
    05:00 +5°C° 0.2 mm 1 mps 631 mmHg 97%
    06:00 +5°C° 0.2 mm 1 mps 632 mmHg 97%
    07:00 +6°C° 0.2 mm 1 mps 632 mmHg 92%
    08:00 +5°C° 0.2 mm 2 mps 633 mmHg 88%
    09:00 +5°C° 0.2 mm 2 mps 633 mmHg 84%
    10:00 +6°C° 0.3 mm 2 mps 633 mmHg 80%
    11:00 +6°C° 0.3 mm 2 mps 634 mmHg 76%
    12:00 +5°C° 0.3 mm 3 mps 634 mmHg 73%
    13:00 +5°C° 0.4 mm 3 mps 634 mmHg 72%
    14:00 +5°C° 0.4 mm 3 mps 634 mmHg 71%
    15:00 +5°C° 0.4 mm 3 mps 634 mmHg 71%
    16:00 +4°C° 0.4 mm 3 mps 633 mmHg 75%
    17:00 +3°C° 0.4 mm 3 mps 633 mmHg 79%
    18:00 +2°C° 0.4 mm 3 mps 633 mmHg 82%
    19:00 +2°C° 0.6 mm 3 mps 634 mmHg 85%
    20:00 +2°C° 0.6 mm 2 mps 634 mmHg 87%
    21:00 +1°C° 0.6 mm 2 mps 634 mmHg 90%
    22:00 +1°C° 0.7 mm 2 mps 634 mmHg 91%
    23:00 -1°C° 0.7 mm 2 mps 634 mmHg 91%

    Day after tomorrow, 27 April, Thursday

    Time Temperature Precipitation Wind Pressure Humidity
    00:00 -1°C° 0.7 mm 2 mps 634 mmHg 92%
    01:00 -2°C° 0.8 mm 2 mps 634 mmHg 92%
    02:00 -2°C° 0.8 mm 2 mps 634 mmHg 92%
    03:00 -2°C° 0.8 mm 2 mps 633 mmHg 92%
    04:00 -2°C° 0.6 mm 2 mps 634 mmHg 91%
    05:00 -3°C° 0.6 mm 2 mps 634 mmHg 90%
    06:00 -3°C° 0.6 mm 2 mps 634 mmHg 88%
    07:00 -2°C° 0.2 mm 2 mps 634 mmHg 84%
    08:00 -1°C° 0.2 mm 3 mps 635 mmHg 79%
    09:00 -1°C° 0.2 mm 3 mps 635 mmHg 74%
    10:00 0°C° 0.1 mm 3 mps 635 mmHg 71%
    11:00 +1°C° 0.1 mm 3 mps 636 mmHg 68%
    12:00 +2°C° 0.1 mm 3 mps 636 mmHg 64%
    13:00 +2°C° 0.2 mm 3 mps 636 mmHg 65%
    14:00 +2°C° 0.2 mm 3 mps 635 mmHg 66%
    15:00 +2°C° 0.2 mm 3 mps 635 mmHg 67%
    16:00 +2°C° 0.2 mm 3 mps 635 mmHg 70%
    17:00 +1°C° 0.2 mm 3 mps 635 mmHg 74%
    18:00 0°C° 0.2 mm 3 mps 635 mmHg 77%
    19:00 -2°C° 0 mm 3 mps 635 mmHg 79%
    20:00 -4°C° 0 mm 3 mps 636 mmHg 80%
    21:00 -5°C° 0 mm 3 mps 636 mmHg 82%
    22:00 -5°C° 0 mm 3 mps 636 mmHg 82%
    23:00 -6°C° 0 mm 3 mps 636 mmHg 82%

    28 April, Friday

    Time Temperature Precipitation Wind Pressure Humidity
    00:00 -6°C° 0 mm 3 mps 636 mmHg 81%
    01:00 -6°C° 0 mm 3 mps 636 mmHg 81%
    02:00 -7°C° 0 mm 3 mps 635 mmHg 81%
    03:00 -7°C° 0 mm 3 mps 635 mmHg 80%
    04:00 -5°C° 0 mm 2 mps 635 mmHg 78%
    05:00 -5°C° 0 mm 2 mps 636 mmHg 75%
    06:00 -5°C° 0 mm 2 mps 636 mmHg 73%
    07:00 -2°C° 0 mm 2 mps 637 mmHg 67%
    08:00 +1°C° 0 mm 2 mps 638 mmHg 61%
    09:00 +4°C° 0 mm 2 mps 638 mmHg 55%
    10:00 +5°C° 0 mm 2 mps 639 mmHg 54%
    11:00 +6°C° 0 mm 2 mps 639 mmHg 52%
    12:00 +7°C° 0 mm 2 mps 639 mmHg 51%
    13:00 +7°C° 0 mm 2 mps 638 mmHg 52%
    14:00 +8°C° 0 mm 1 mps 638 mmHg 53%
    15:00 +9°C° 0 mm 1 mps 638 mmHg 54%
    16:00 +8°C° 0 mm 1 mps 637 mmHg 59%
    17:00 +7°C° 0 mm 1 mps 637 mmHg 64%
    18:00 +6°C° 0 mm 1 mps 637 mmHg 70%
    19:00 +3°C° 0 mm 1 mps 636 mmHg 76%
    20:00 +1°C° 0 mm 1 mps 636 mmHg 83%
    21:00 -1°C° 0 mm 1 mps 635 mmHg 90%
    22:00 -2°C° 0 mm 1 mps 635 mmHg 90%
    23:00 -2°C° 0 mm 1 mps 634 mmHg 90%

    29 April, Saturday

    Time Temperature Precipitation Wind Pressure Humidity
    00:00 -3°C° 0 mm 1 mps 634 mmHg 90%
    01:00 -3°C° 0 mm 1 mps 634 mmHg 89%
    02:00 -2°C° 0 mm 1 mps 634 mmHg 89%
    03:00 -2°C° 0 mm 1 mps 633 mmHg 88%
    04:00 -1°C° 0 mm 1 mps 634 mmHg 84%
    05:00 0°C° 0 mm 1 mps 634 mmHg 80%
    06:00 +1°C° 0 mm 1 mps 635 mmHg 76%
    07:00 +3°C° 0 mm 2 mps 635 mmHg 70%
    08:00 +5°C° 0 mm 2 mps 636 mmHg 63%
    09:00 +7°C° 0 mm 3 mps 636 mmHg 57%
    10:00 +8°C° 0 mm 3 mps 636 mmHg 57%
    11:00 +9°C° 0 mm 3 mps 636 mmHg 56%
    12:00 +10°C° 0 mm 4 mps 636 mmHg 56%
    13:00 +10°C° 0.1 mm 3 mps 635 mmHg 61%
    14:00 +9°C° 0.1 mm 3 mps 635 mmHg 66%
    15:00 +9°C° 0.1 mm 3 mps 634 mmHg 70%
    16:00 +8°C° 0.2 mm 3 mps 634 mmHg 76%
    17:00 +7°C° 0.2 mm 3 mps 633 mmHg 81%
    18:00 +5°C° 0.2 mm 3 mps 633 mmHg 87%
    19:00 +5°C° 0.2 mm 2 mps 633 mmHg 89%
    20:00 +5°C° 0.2 mm 2 mps 633 mmHg 90%
    21:00 +4°C° 0.2 mm 2 mps 633 mmHg 92%
    22:00 +4°C° 0.7 mm 2 mps 633 mmHg 92%
    23:00 +4°C° 0.7 mm 2 mps 633 mmHg 93%

    30 April, Sunday

    Time Temperature Precipitation Wind Pressure Humidity
    00:00 +4°C° 0.7 mm 2 mps 632 mmHg 94%
    01:00 +4°C° 0.3 mm 2 mps 632 mmHg 94%
    02:00 +4°C° 0.3 mm 2 mps 632 mmHg 94%
    03:00 +4°C° 0.3 mm 2 mps 632 mmHg 94%
    04:00 +4°C° 0.1 mm 2 mps 632 mmHg 94%
    05:00 +4°C° 0.1 mm 2 mps 632 mmHg 93%
    06:00 +5°C° 0.1 mm 2 mps 632 mmHg 92%
    07:00 +6°C° 0.1 mm 2 mps 632 mmHg 86%
    08:00 +7°C° 0.1 mm 3 mps 633 mmHg 80%
    09:00 +8°C° 0.1 mm 3 mps 633 mmHg 75%
    10:00 +8°C° 0.1 mm 4 mps 633 mmHg 70%
    11:00 +10°C° 0.1 mm 4 mps 633 mmHg 66%
    12:00 +10°C° 0.1 mm 4 mps 634 mmHg 61%
    13:00 +10°C° 0.3 mm 4 mps 633 mmHg 64%
    14:00 +8°C° 0.3 mm 4 mps 633 mmHg 67%
    15:00 +7°C° 0.3 mm 4 mps 633 mmHg 70%
    16:00 +6°C° 0.4 mm 4 mps 633 mmHg 73%
    17:00 +5°C° 0.4 mm 3 mps 633 mmHg 76%
    18:00 +4°C° 0.4 mm 3 mps 634 mmHg 79%
    19:00 +3°C° 0.2 mm 3 mps 634 mmHg 82%
    20:00 +2°C° 0.2 mm 2 mps 635 mmHg 85%
    21:00 +1°C° 0.2 mm 2 mps 635 mmHg 87%
    22:00 -1°C° 0 mm 2 mps 635 mmHg 88%
    23:00 -1°C° 0 mm 2 mps 635 mmHg 88%
    Show more